Wind_Speed
18 21 26 5 4 4 3 5 1 6 4 0 3 1 3 4 2 3 10 12 17 19 21 20 18 16 14 13 9 8 6 6 8 8 6 5 3 2 6 5 5 6 4 5 4 2 2 3 3
18 22 8 2 3 2 5 3 6 5 2 6 6 3 3 2 3 7 8 16 17 17 20 21 17 16 13 12 10 8 8 7 7 8 5 3 4 3 3 4 3 2 5 5 4 3 2 2 4
18 16 2 2 2 4 3 1 1 5 7 5 5 3 3 2 5 7 14 18 16 15 20 21 20 15 14 15 9 9 9 7 7 10 6 4 4 5 4 1 1 1 3 5 4 3 3 2 2
9 7 4 1 8 8 5 5 3 2 7 6 2 3 4 3 2 12 17 19 17 18 19 20 18 16 16 14 11 9 9 7 5 9 8 3 1 3 6 4 2 1 3 3 4 2 3 3 4
7 2 1 2 7 7 7 1 2 2 2 2 2 1 3 4 14 17 16 19 20 19 19 17 19 17 15 12 11 8 8 7 5 7 8 3 1 0 5 5 4 2 3 4 3 4 5 6 8
2 2 1 4 7 8 6 4 4 1 2 6 3 2 2 6 9 15 12 16 18 20 17 17 18 17 14 13 10 8 8 7 6 5 7 5 2 3 4 6 4 3 3 5 6 7 7 8 8
4 1 4 5 8 8 5 2 6 2 2 2 4 3 3 2 9 12 10 12 17 15 13 15 18 16 15 13 11 9 8 7 6 4 3 8 6 2 2 4 4 4 5 8 10 10 10 10 10
3 3 5 5 8 11 4 4 3 4 4 2 2 3 4 6 14 15 11 14 14 13 12 12 17 17 16 15 13 11 10 8 7 4 3 3 6 5 2 2 5 6 9 11 11 11 11 11 12
2 2 8 8 9 11 9 4 2 3 4 0 4 3 6 19 19 17 15 15 15 16 14 15 14 15 15 14 14 11 10 9 8 5 2 4 6 4 3 4 4 7 8 8 10 9 11 11 12
6 5 7 4 9 9 11 4 4 3 0 3 4 7 9 18 19 16 14 18 20 21 19 19 17 16 14 16 15 11 10 7 6 6 5 4 1 2 3 3 4 5 8 9 10 12 13 14 16
4 11 5 5 13 12 10 5 3 1 3 4 6 7 1 7 7 9 11 20 27 27 24 21 20 17 15 18 14 9 9 6 6 7 6 4 2 2 2 2 3 7 8 9 12 13 12 15 16
12 12 13 12 17 13 8 6 5 5 7 5 8 7 5 7 7 8 7 10 17 26 26 24 21 19 19 15 12 11 11 8 7 7 5 6 4 4 1 2 4 5 5 6 8 12 13 15 15
12 14 15 17 18 19 11 11 9 6 8 7 11 10 11 9 9 13 4 7 9 26 27 25 22 21 18 18 13 10 14 12 8 11 8 4 3 2 1 2 3 4 7 9 9 11 12 14 15
8 10 17 20 16 14 19 9 5 8 8 9 12 12 10 9 7 5 7 4 9 19 23 25 22 21 19 16 14 11 12 9 10 7 5 3 2 1 2 4 9 12 11 10 10 11 13 13 14
8 13 15 18 19 14 11 18 15 9 7 11 12 11 7 6 7 6 7 12 11 14 17 19 20 20 20 17 13 12 11 11 8 8 8 6 6 4 11 12 13 13 10 8 10 12 12 15 17
4 6 13 9 9 8 11 21 13 12 9 13 13 10 9 6 6 9 8 8 9 10 13 14 16 20 21 19 16 14 11 13 13 14 10 12 14 14 10 10 10 9 8 9 11 13 16 16 18
3 10 7 7 7 6 15 21 10 10 9 10 9 9 7 7 6 8 7 9 9 10 10 12 17 19 24 22 20 21 19 17 18 17 16 15 15 12 10 10 10 8 8 12 13 14 16 17 19
11 6 13 9 5 11 16 16 9 11 13 11 10 7 9 8 6 9 8 8 9 12 12 14 20 24 29 26 25 26 25 22 19 17 15 14 13 11 9 9 10 9 10 13 14 15 15 17 20
9 15 14 12 10 12 20 17 17 14 9 8 9 7 9 9 7 12 10 10 15 15 18 21 28 33 32 31 31 29 27 23 20 17 15 14 13 12 11 10 10 10 12 12 13 15 17 18 23
15 15 21 15 16 9 13 21 18 14 16 9 11 8 13 9 7 8 11 14 17 19 22 25 28 28 30 28 27 28 26 20 19 17 15 13 12 12 11 10 10 9 9 11 12 16 16 10 21
17 18 18 16 14 14 7 16 21 11 15 10 8 15 14 18 12 8 8 15 19 21 24 26 28 31 30 28 28 27 25 22 19 14 14 12 11 11 10 9 9 8 8 10 11 14 16 15 19
18 15 14 17 11 11 4 8 20 19 13 11 10 16 13 13 10 9 9 14 21 21 25 27 30 32 32 30 31 30 27 22 16 13 11 10 9 10 9 8 8 8 8 10 12 13 15 18 20
16 11 13 13 15 15 18 7 12 14 17 14 9 18 16 17 17 14 9 19 21 22 23 25 27 27 28 28 26 24 22 19 17 14 11 7 7 8 8 8 7 9 10 11 13 15 16 17 18
3 5 11 9 9 13 15 9 6 13 20 26 8 16 17 15 14 14 20 23 24 25 27 28 29 26 25 26 23 23 21 19 17 14 12 9 5 6 8 9 9 9 10 12 13 15 16 18 18
4 4 4 7 6 11 8 9 16 8 13 20 18 19 17 17 17 16 15 14 22 25 25 26 27 25 25 24 21 19 18 16 15 12 10 7 4 7 9 9 10 11 11 12 14 16 18 19 21
10 14 6 7 7 6 6 6 9 15 12 14 21 23 19 17 16 16 14 16 22 26 24 25 25 24 23 22 20 17 16 15 13 10 8 7 6 6 8 9 10 11 12 14 15 18 20 21 23
7 12 21 5 5 3 5 6 11 6 9 14 18 19 19 17 17 17 14 20 23 26 26 27 25 23 21 19 18 16 15 13 12 10 8 6 5 6 8 9 11 13 14 16 18 20 22 24 26
11 11 11 5 5 7 5 11 8 7 14 16 18 19 17 16 16 15 14 19 25 26 26 25 23 23 21 19 17 16 14 12 10 8 7 6 5 7 9 11 13 15 18 19 21 22 25 25 26
11 8 7 4 9 2 5 5 7 12 15 19 19 18 19 18 17 15 14 21 26 27 27 25 23 22 21 18 17 15 13 11 8 7 6 6 6 8 10 13 15 18 20 22 24 25 24 26 27
16 14 11 8 8 9 3 3 1 10 13 16 18 18 16 16 14 14 14 19 23 27 27 26 24 21 19 18 16 14 12 9 7 6 5 5 7 9 12 14 17 19 22 24 25 26 27 27 21
Wind_Direction
322 332 330 345 39 66 261 264 337 20 28 69 245 75 228 230 288 175 138 139 140 148 156 157 156 162 158 162 153 138 133 121 116 115 117 118 158 95 107 98 80 65 28 21 20 8 10 14 31
324 327 339 35 90 34 272 344 42 313 262 312 10 30 105 75 86 122 117 153 151 143 156 152 151 162 161 166 157 147 143 137 136 136 127 142 150 144 108 81 52 37 19 17 23 13 334 285 279
325 310 69 123 187 192 236 222 83 332 350 22 18 6 55 7 123 139 135 153 152 146 153 158 162 168 163 162 159 147 151 148 153 165 159 152 156 192 176 134 265 313 359 8 19 16 26 24 327
320 338 5 129 256 262 256 264 180 15 345 13 48 31 66 360 119 147 144 150 155 159 158 158 159 160 165 165 160 149 153 147 150 172 179 116 12 217 219 159 251 273 334 347 6 339 313 310 315
311 60 291 254 256 269 271 138 160 96 321 290 3 337 94 43 120 137 146 157 161 159 167 165 168 169 174 172 163 154 152 140 139 159 172 168 45 318 183 186 205 255 339 336 329 317 308 301 301
325 115 148 236 264 277 281 241 111 98 335 291 69 97 87 118 127 152 146 162 170 163 166 176 176 178 183 178 169 164 164 155 153 141 180 200 218 63 163 205 226 262 296 304 292 301 304 301 297
164 65 225 245 267 291 280 152 133 101 346 1 308 71 173 140 144 150 152 137 160 163 164 176 180 185 184 178 174 172 175 179 176 173 186 219 230 202 124 192 234 267 287 292 303 303 301 300 298
152 149 244 230 256 278 263 196 150 137 227 262 9 138 216 205 158 154 147 163 159 172 178 175 183 185 186 186 185 186 185 196 204 212 229 219 214 213 239 250 284 288 298 302 308 307 312 316 317
342 232 230 223 237 256 290 275 216 158 133 130 245 220 198 172 161 155 160 162 172 174 187 188 181 186 187 189 191 193 200 209 218 222 149 126 142 183 213 241 285 319 328 338 334 342 342 335 334
189 210 235 217 229 245 275 244 261 147 338 306 324 316 183 173 167 165 181 186 185 184 188 197 195 194 187 190 191 193 200 205 195 159 126 110 152 136 193 312 318 344 351 357 353 340 335 327 321
245 235 251 244 256 266 276 273 205 334 274 229 256 287 179 193 196 199 202 204 198 196 189 192 196 197 193 193 182 182 187 174 196 187 162 141 100 164 232 298 297 338 339 339 344 337 335 338 341
255 249 246 256 273 271 273 287 267 190 220 239 275 254 271 268 238 221 254 248 212 196 191 189 194 190 189 190 187 196 189 181 205 172 173 174 205 193 289 315 335 333 13 357 353 343 343 342 347
251 246 250 239 240 258 259 255 246 254 265 285 285 287 280 281 259 236 217 183 168 191 193 188 189 194 188 185 184 184 175 179 167 166 163 172 143 206 273 334 345 2 11 11 19 30 17 4 355
294 273 254 250 248 253 260 250 220 244 234 259 257 258 264 248 243 185 153 144 176 178 179 183 189 190 189 173 177 173 175 174 175 162 165 157 194 123 56 71 56 51 49 47 28 17 3 351 343
270 266 263 252 246 248 265 269 236 239 221 240 255 257 252 169 114 124 122 123 136 159 175 184 186 188 185 182 163 172 156 163 149 143 130 126 112 134 111 85 64 53 39 17 2 357 350 350 349
295 289 251 250 251 239 233 259 245 247 229 246 249 246 186 168 127 134 134 133 139 162 175 171 171 177 173 167 163 167 162 161 137 126 130 104 105 100 100 78 60 46 23 8 9 2 355 1 3
227 261 276 272 238 252 226 252 241 242 237 256 264 206 191 135 103 127 138 152 165 169 186 197 185 160 159 154 153 137 135 136 120 117 115 105 99 92 87 70 55 40 25 20 14 11 13 12 3
239 227 255 256 229 240 257 262 241 230 228 238 228 214 168 142 162 147 150 160 169 157 162 161 154 151 148 147 142 127 120 117 122 113 111 108 101 93 84 64 48 40 28 27 23 18 16 12 1
261 276 270 259 239 224 234 246 245 239 236 230 237 165 152 144 170 144 150 168 152 150 146 145 141 139 140 136 129 123 116 118 114 114 113 104 94 84 72 60 51 43 36 34 25 16 10 8 6
244 255 264 281 277 237 243 241 241 225 237 215 213 168 154 147 148 138 143 136 145 143 144 142 140 141 141 138 135 132 125 123 122 118 108 98 88 76 66 58 53 43 33 30 25 20 8 358 10
229 230 250 256 292 287 275 262 248 235 222 219 212 169 171 157 151 135 128 126 123 124 133 138 141 139 138 138 133 129 129 128 125 119 108 91 79 72 63 55 47 38 28 28 24 17 15 360 357
241 239 257 257 271 260 216 269 237 230 218 218 214 162 169 150 140 135 133 128 126 125 129 132 134 137 141 144 143 145 145 142 138 132 117 97 74 63 55 46 37 31 24 21 19 12 11 4 353
255 244 262 258 258 270 265 265 252 209 224 224 187 169 165 157 153 143 136 135 133 132 132 133 135 136 141 145 149 148 142 135 134 131 125 106 75 50 45 39 31 24 16 12 8 4 1 359 348
241 337 306 255 259 255 231 252 238 223 216 218 149 168 159 152 143 131 131 134 131 132 130 131 131 133 145 149 150 147 141 139 136 129 128 125 97 46 35 26 19 13 7 3 359 353 349 346 339
131 207 236 222 219 242 205 207 251 241 212 187 168 163 157 148 143 139 136 140 139 139 136 133 133 126 135 140 142 143 139 138 134 134 131 127 84 38 25 12 9 4 358 353 347 341 339 336 332
188 190 216 210 211 235 173 229 224 248 200 162 157 156 151 147 146 143 142 147 147 146 144 141 137 133 139 141 135 136 135 134 129 124 111 90 62 36 5 0 356 350 346 342 339 335 334 332 326
185 201 218 326 285 176 181 223 326 275 125 134 144 150 154 149 150 146 146 154 157 153 153 149 144 140 141 141 140 137 136 133 123 112 99 77 49 15 357 350 343 341 340 339 337 333 331 328 326
219 166 188 181 253 189 204 190 199 193 150 147 150 156 154 151 150 150 151 157 164 160 155 152 151 146 145 144 143 138 134 129 117 105 80 53 26 359 350 343 339 338 339 338 335 331 329 329 326
183 218 200 179 240 267 170 230 203 175 160 158 162 161 161 160 159 155 151 159 162 160 156 153 152 148 147 150 145 139 132 125 111 89 62 33 5 350 344 341 337 336 336 336 333 331 329 323 324
191 209 176 195 203 226 175 306 83 156 157 160 167 166 162 155 153 149 151 151 149 154 157 157 153 152 152 151 146 137 132 124 107 77 40 5 354 348 344 339 335 335 334 333 332 327 324 323 318
Height
789 786 783 781 808 811 811 794 769 781 773 761 757 761 771 769 774 795 772 771 773 775 778 780 783 785 787 789 790 792 793 794 795 796 797 797 798 798 799 799 799 799 799 798 798 797 797 798 797
789 786 784 790 817 827 816 787 792 782 767 759 755 757 765 776 765 770 771 772 773 774 777 780 782 784 786 788 789 790 792 794 794 796 797 797 797 798 798 799 799 799 799 798 797 797 796 796 796
790 788 795 804 815 819 810 783 780 771 762 760 764 757 764 774 768 768 770 771 773 774 776 778 781 783 785 787 789 789 791 792 793 794 795 796 796 796 797 798 798 798 798 797 796 796 795 794 794
791 788 794 810 813 796 790 778 771 771 765 760 761 773 767 766 765 766 769 771 771 774 776 778 781 782 784 786 787 789 791 791 792 792 793 794 795 794 795 796 797 797 796 796 795 795 794 794 794
791 796 812 813 807 790 778 767 767 772 769 766 762 773 773 768 767 768 769 771 771 773 776 778 780 782 784 786 787 788 790 790 791 792 793 794 794 793 794 795 795 795 795 795 795 795 795 794 794
799 799 819 822 807 785 776 761 764 768 769 768 767 769 774 768 767 768 768 770 770 772 775 777 779 781 784 785 786 787 789 790 791 792 793 793 793 793 793 794 795 795 795 795 795 794 794 793 793
801 809 815 808 804 793 776 762 768 769 772 771 764 773 773 768 767 768 768 769 770 772 774 776 778 780 783 784 785 786 788 790 791 791 791 791 793 793 793 794 794 795 794 795 794 794 793 792 791
794 802 806 805 802 795 772 765 760 764 770 761 759 775 777 765 764 766 767 769 770 771 773 776 777 779 781 782 783 785 787 789 790 790 790 790 791 793 792 793 794 794 794 793 793 792 791 790 789
787 807 803 800 798 786 768 771 757 755 762 761 760 760 758 759 761 763 765 767 769 770 771 773 776 778 778 780 782 784 785 787 789 789 789 789 790 791 792 792 793 793 792 792 791 790 789 788 787
793 801 792 782 781 780 771 770 763 762 766 766 763 756 757 759 760 761 762 762 763 765 768 770 773 775 776 779 781 782 784 786 787 788 789 789 790 791 791 791 792 792 791 790 790 789 788 786 785
783 786 781 776 773 771 771 768 760 765 770 765 766 759 758 759 758 757 758 758 757 759 764 767 770 773 774 777 779 780 783 784 786 787 788 788 789 791 791 792 791 791 790 789 788 787 786 784 783
789 777 777 775 769 769 771 763 762 761 764 757 758 756 754 754 754 753 752 753 753 757 759 763 767 771 773 775 777 778 780 783 785 785 787 788 788 790 790 790 789 788 787 787 787 786 784 783 781
782 776 770 765 764 762 762 766 763 757 752 752 753 752 752 749 749 748 748 751 750 753 756 759 763 768 771 773 775 777 779 782 784 786 787 788 788 789 789 789 788 787 786 785 784 783 782 780 779
774 772 765 760 759 759 761 760 759 753 749 753 752 750 748 747 745 746 746 748 749 751 753 757 761 765 768 771 774 777 778 781 783 785 786 787 788 788 789 789 788 786 785 784 783 782 781 779 777
771 772 763 758 756 759 759 760 756 749 748 751 748 747 745 745 743 744 745 745 747 750 753 755 759 761 764 769 773 776 777 780 782 783 785 786 786 787 787 787 787 786 785 784 783 781 779 778 776
777 772 771 759 758 752 761 759 749 743 748 748 745 744 744 742 741 743 743 745 748 749 752 755 757 759 762 768 772 775 777 778 781 783 784 785 786 786 786 786 787 787 785 783 782 780 779 777 775
784 779 777 769 754 756 752 753 746 741 742 745 742 740 742 742 742 742 743 745 747 749 750 752 754 757 762 766 769 771 775 778 781 783 784 786 787 787 787 788 788 787 785 784 782 781 779 777 774
778 783 773 770 757 756 756 748 743 737 737 740 738 736 741 741 743 742 742 744 747 748 749 751 753 756 759 763 767 772 776 780 782 784 786 786 787 787 788 787 787 786 785 784 782 781 779 777 774
777 774 764 756 752 753 746 746 737 733 735 737 737 737 741 742 741 741 742 745 747 749 750 751 753 756 758 762 767 772 777 781 784 786 787 787 787 788 788 787 787 786 785 784 783 780 778 775 773
777 778 769 762 755 756 747 741 732 728 725 727 729 738 737 740 741 740 743 746 747 749 750 752 754 756 760 764 768 772 778 783 785 787 788 788 788 788 787 787 787 786 785 784 782 780 779 777 775
771 773 771 769 757 749 752 745 733 722 719 717 718 723 729 730 735 740 745 746 748 751 752 753 755 758 762 765 770 775 780 784 786 788 788 789 788 788 788 787 786 786 784 783 783 781 779 777 775
769 759 761 761 765 762 743 744 724 717 717 715 716 722 728 728 732 738 745 747 748 752 754 756 758 760 763 766 770 773 777 781 785 787 788 788 788 788 788 788 787 786 785 784 782 781 779 778 776
758 758 759 757 761 763 750 751 717 711 715 712 717 716 720 721 726 734 742 746 748 752 755 758 760 762 765 768 772 775 779 782 784 787 788 788 789 789 788 788 787 785 784 783 782 780 778 778 777
752 761 760 756 761 762 750 755 725 709 701 694 712 712 715 720 728 733 740 747 749 753 756 759 761 764 767 770 773 776 778 781 784 786 788 789 789 789 788 787 786 785 783 782 781 779 778 776 775
758 767 767 768 764 742 731 755 729 692 680 678 697 706 712 717 724 731 738 746 749 752 756 759 761 765 768 771 775 777 780 782 785 787 788 789 788 788 787 787 785 784 782 781 779 777 776 774 772
753 760 756 758 737 728 728 741 701 677 670 671 684 694 707 717 723 729 736 745 748 751 755 758 761 765 768 772 775 778 780 783 785 787 787 787 787 787 787 786 784 783 781 780 778 776 773 772 770
745 747 736 746 729 727 728 722 698 684 678 683 690 699 707 714 721 727 735 742 748 751 754 757 762 765 769 773 776 778 781 783 785 786 786 787 787 787 785 784 783 782 780 778 776 773 771 769 766
726 726 748 749 733 719 714 710 700 692 686 686 693 699 707 714 720 726 732 740 746 750 754 758 762 765 770 773 776 779 781 783 784 785 785 785 785 785 784 783 782 780 778 776 774 771 768 765 763
731 729 721 727 728 716 719 697 677 677 677 684 689 694 702 709 715 723 730 738 744 749 754 758 762 766 770 773 776 779 781 782 783 784 784 784 784 783 783 782 781 779 776 774 771 768 764 761 757
708 712 705 717 721 723 694 694 665 671 675 677 684 691 699 706 716 722 729 737 743 749 753 757 762 766 770 773 776 778 780 781 782 782 783 783 782 782 782 781 779 776 773 770 767 763 760 756 753